Time,TemperatureF,DewpointF,PressureIn,WindDirection,WindDirectionDegrees,WindSpeedMPH,WindSpeedGustMPH,Humidity,HourlyPrecipIn,Conditions,Clouds,dailyrainin,SoftwareType,DateUTC
2013-04-06 08:23:00,24.2,21.7,30.37,WNW,294,0.0,1.0,90,0.00,,---,0.00,VWS V13.01,2013-04-06 12:23:00,
2013-04-06 08:24:00,24.5,22.0,30.37,WNW,294,0.0,1.0,90,0.00,,---,0.00,VWS V13.01,2013-04-06 12:24:00,
2013-04-06 08:25:00,24.6,22.1,30.37,WNW,294,0.0,1.0,90,0.00,,---,0.00,VWS V13.01,2013-04-06 12:25:00,
2013-04-06 08:27:00,25.2,22.7,30.37,WNW,294,0.0,1.0,90,0.00,,---,0.00,VWS V13.01,2013-04-06 12:27:00,
2013-04-06 08:32:00,26.4,23.9,30.37,WNW,294,0.0,0.0,90,0.00,,---,0.00,VWS V13.01,2013-04-06 12:32:00,
2013-04-06 08:37:00,27.5,24.4,30.38,WNW,294,0.0,0.0,88,0.00,,---,0.00,VWS V13.01,2013-04-06 12:37:00,
2013-04-06 08:42:00,28.3,24.9,30.37,WNW,294,0.0,1.0,87,0.00,,---,0.00,VWS V13.01,2013-04-06 12:42:00,
2013-04-06 08:48:00,28.2,24.0,30.38,WNW,294,0.0,2.0,84,0.00,,---,0.00,VWS V13.01,2013-04-06 12:48:00,
2013-04-06 08:53:00,27.9,22.8,30.38,NW,319,0.0,2.0,81,0.00,,---,0.00,VWS V13.01,2013-04-06 12:53:00,
2013-04-06 08:59:00,28.3,22.6,30.37,East,83,4.0,6.0,79,0.00,,---,0.00,VWS V13.01,2013-04-06 12:59:00,
2013-04-06 09:04:00,28.5,22.5,30.38,East,82,0.0,6.0,78,0.00,,---,0.00,VWS V13.01,2013-04-06 13:04:00,
2013-04-06 09:10:00,29.0,21.4,30.38,East,90,6.0,9.0,73,0.00,,---,0.00,VWS V13.01,2013-04-06 13:10:00,
2013-04-06 09:15:00,29.5,21.9,30.38,East,96,5.0,9.0,73,0.00,,---,0.00,VWS V13.01,2013-04-06 13:15:00,
2013-04-06 09:20:00,29.7,20.5,30.37,East,98,0.0,9.0,68,0.00,,---,0.00,VWS V13.01,2013-04-06 13:20:00,
2013-04-06 09:25:00,30.2,21.9,30.37,East,97,7.0,9.0,71,0.00,,---,0.00,VWS V13.01,2013-04-06 13:25:00,
2013-04-06 09:31:00,30.3,20.7,30.37,East,101,6.0,6.0,67,0.00,,---,0.00,VWS V13.01,2013-04-06 13:31:00,
2013-04-06 09:36:00,30.6,20.6,30.37,ENE,71,1.0,8.0,66,0.00,,---,0.00,VWS V13.01,2013-04-06 13:36:00,
2013-04-06 09:41:00,31.3,20.9,30.37,East,94,7.0,9.0,65,0.00,,---,0.00,VWS V13.01,2013-04-06 13:41:00,
2013-04-06 09:47:00,31.8,21.4,30.37,ENE,76,2.0,9.0,65,0.00,,---,0.00,VWS V13.01,2013-04-06 13:47:00,
2013-04-06 09:52:00,32.1,20.2,30.37,SSE,152,5.0,9.0,61,0.00,,---,0.00,VWS V13.01,2013-04-06 13:52:00,
2013-04-06 09:57:00,32.3,20.4,30.37,ESE,103,5.0,9.0,61,0.00,,---,0.00,VWS V13.01,2013-04-06 13:57:00,
2013-04-06 10:03:00,32.2,19.5,30.37,ENE,74,2.0,7.0,59,0.00,,---,0.00,VWS V13.01,2013-04-06 14:03:00,
2013-04-06 10:08:00,32.5,20.9,30.37,East,100,2.0,8.0,62,0.00,,---,0.00,VWS V13.01,2013-04-06 14:08:00,
2013-04-06 10:13:00,32.9,20.2,30.37,SSE,148,0.0,8.0,59,0.00,,---,0.00,VWS V13.01,2013-04-06 14:13:00,
2013-04-06 10:18:00,33.9,20.7,30.37,East,96,6.0,9.0,58,0.00,,---,0.00,VWS V13.01,2013-04-06 14:18:00,
2013-04-06 10:24:00,33.9,18.1,30.37,East,91,0.0,13.0,52,0.00,,---,0.00,VWS V13.01,2013-04-06 14:24:00,
2013-04-06 10:29:00,34.4,19.0,30.37,ESE,114,9.0,14.0,53,0.00,,---,0.00,VWS V13.01,2013-04-06 14:29:00,
2013-04-06 10:34:00,34.4,19.0,30.37,East,98,6.0,10.0,53,0.00,,---,0.00,VWS V13.01,2013-04-06 14:34:00,
2013-04-06 10:39:00,34.8,18.1,30.38,SSE,147,0.0,18.0,50,0.00,,---,0.00,VWS V13.01,2013-04-06 14:39:00,
2013-04-06 10:44:00,35.3,18.5,30.37,ESE,103,0.0,18.0,50,0.00,,---,0.00,VWS V13.01,2013-04-06 14:44:00,
2013-04-06 10:49:00,35.8,19.5,30.37,ESE,113,5.0,18.0,51,0.00,,---,0.00,VWS V13.01,2013-04-06 14:49:00,
2013-04-06 10:54:00,36.0,19.2,30.37,ESE,119,6.0,18.0,50,0.00,,---,0.00,VWS V13.01,2013-04-06 14:54:00,
2013-04-06 10:59:00,36.1,18.3,30.37,SW,233,0.0,18.0,48,0.00,,---,0.00,VWS V13.01,2013-04-06 14:59:00,
2013-04-06 11:05:00,37.1,20.2,30.37,SSE,157,0.0,10.0,50,0.00,,---,0.00,VWS V13.01,2013-04-06 15:05:00,
2013-04-06 11:11:00,38.1,18.6,30.37,ESE,113,3.0,10.0,45,0.00,,---,0.00,VWS V13.01,2013-04-06 15:11:00,
2013-04-06 11:16:00,38.0,17.5,30.37,SW,223,5.0,10.0,43,0.00,,---,0.00,VWS V13.01,2013-04-06 15:16:00,
2013-04-06 11:22:00,38.0,18.0,30.36,SSE,164,6.0,10.0,44,0.00,,---,0.00,VWS V13.01,2013-04-06 15:22:00,
2013-04-06 11:27:00,38.3,17.8,30.36,SE,136,0.0,10.0,43,0.00,,---,0.00,VWS V13.01,2013-04-06 15:27:00,
2013-04-06 11:32:00,38.7,17.0,30.36,ESE,121,7.0,16.0,41,0.00,,---,0.00,VWS V13.01,2013-04-06 15:32:00,
2013-04-06 11:38:00,38.8,18.8,30.36,East,101,1.0,16.0,44,0.00,,---,0.00,VWS V13.01,2013-04-06 15:38:00,
2013-04-06 11:43:00,39.4,18.2,30.36,ESE,107,1.0,16.0,42,0.00,,---,0.00,VWS V13.01,2013-04-06 15:43:00,
2013-04-06 11:49:00,39.7,16.8,30.35,ESE,120,0.0,16.0,39,0.00,,---,0.00,VWS V13.01,2013-04-06 15:49:00,
2013-04-06 11:54:00,40.1,17.1,30.35,ESE,113,0.0,16.0,39,0.00,,---,0.00,VWS V13.01,2013-04-06 15:54:00,
2013-04-06 12:00:00,40.9,17.9,30.35,WSW,245,6.0,16.0,39,0.00,,---,0.00,VWS V13.01,2013-04-06 16:00:00,
2013-04-06 12:05:00,41.0,19.1,30.35,SSW,207,4.0,11.0,41,0.00,,---,0.00,VWS V13.01,2013-04-06 16:05:00,
2013-04-06 12:10:00,42.0,22.7,30.34,ESE,115,7.0,11.0,46,0.00,,---,0.00,VWS V13.01,2013-04-06 16:10:00,
2013-04-06 12:17:00,41.6,19.1,30.34,SE,126,8.0,14.0,40,0.00,,---,0.00,VWS V13.01,2013-04-06 16:17:00,
2013-04-06 12:23:00,41.3,16.4,30.34,ENE,71,0.0,14.0,36,0.00,,---,0.00,VWS V13.01,2013-04-06 16:23:00,
2013-04-06 12:28:00,41.8,17.5,30.34,ESE,111,8.0,14.0,37,0.00,,---,0.00,VWS V13.01,2013-04-06 16:28:00,
2013-04-06 12:33:00,42.1,17.7,30.34,East,87,0.0,5.0,37,0.00,,---,0.00,VWS V13.01,2013-04-06 16:33:00,
2013-04-06 12:38:00,43.1,19.2,30.34,ENE,74,0.0,5.0,38,0.00,,---,0.00,VWS V13.01,2013-04-06 16:38:00,
2013-04-06 12:43:00,43.2,16.1,30.33,WSW,240,0.0,9.0,33,0.00,,---,0.00,VWS V13.01,2013-04-06 16:43:00,
2013-04-06 12:49:00,43.5,18.3,30.33,ENE,63,4.0,9.0,36,0.00,,---,0.00,VWS V13.01,2013-04-06 16:49:00,
2013-04-06 12:54:00,43.8,17.3,30.33,South,186,6.0,12.0,34,0.00,,---,0.00,VWS V13.01,2013-04-06 16:54:00,
2013-04-06 12:59:00,44.0,16.0,30.32,South,184,0.0,12.0,32,0.00,,---,0.00,VWS V13.01,2013-04-06 16:59:00,
2013-04-06 13:05:00,44.3,15.6,30.32,ENE,72,0.0,9.0,31,0.00,,---,0.00,VWS V13.01,2013-04-06 17:05:00,
2013-04-06 13:11:00,44.4,17.8,30.32,West,265,0.0,9.0,34,0.00,,---,0.00,VWS V13.01,2013-04-06 17:11:00,
2013-04-06 13:16:00,44.7,19.4,30.31,ESE,105,5.0,12.0,36,0.00,,---,0.00,VWS V13.01,2013-04-06 17:16:00,
2013-04-06 13:21:00,44.7,18.8,30.31,East,92,0.0,12.0,35,0.00,,---,0.00,VWS V13.01,2013-04-06 17:21:00,
2013-04-06 13:27:00,45.6,17.5,30.31,SW,233,7.0,12.0,32,0.00,,---,0.00,VWS V13.01,2013-04-06 17:27:00,
2013-04-06 13:32:00,45.6,17.5,30.31,SSE,161,0.0,1.0,32,0.00,,---,0.00,VWS V13.01,2013-04-06 17:32:00,
2013-04-06 13:38:00,45.9,17.7,30.31,SE,140,0.0,5.0,32,0.00,,---,0.00,VWS V13.01,2013-04-06 17:38:00,
2013-04-06 13:43:00,46.1,17.2,30.30,ESE,106,0.0,5.0,31,0.00,,---,0.00,VWS V13.01,2013-04-06 17:43:00,
2013-04-06 13:48:00,46.3,18.1,30.30,WNW,288,0.0,8.0,32,0.00,,---,0.00,VWS V13.01,2013-04-06 17:48:00,
2013-04-06 13:54:00,46.4,15.1,30.30,WSW,242,5.0,11.0,28,0.00,,---,0.00,VWS V13.01,2013-04-06 17:54:00,
2013-04-06 13:59:00,46.3,13.3,30.30,South,188,2.0,11.0,26,0.00,,---,0.00,VWS V13.01,2013-04-06 17:59:00,
2013-04-06 14:05:00,46.5,16.8,30.29,ENE,71,0.0,5.0,30,0.00,,---,0.00,VWS V13.01,2013-04-06 18:05:00,
2013-04-06 14:10:00,47.4,15.9,30.29,South,172,8.0,8.0,28,0.00,,---,0.00,VWS V13.01,2013-04-06 18:10:00,
2013-04-06 14:15:00,47.3,16.7,30.27,West,261,8.0,12.0,29,0.00,,---,0.00,VWS V13.01,2013-04-06 18:15:00,
2013-04-06 14:20:00,47.1,14.9,30.27,WNW,289,0.0,16.0,27,0.00,,---,0.00,VWS V13.01,2013-04-06 18:20:00,
2013-04-06 14:26:00,47.4,15.1,30.27,SSE,148,0.0,16.0,27,0.00,,---,0.00,VWS V13.01,2013-04-06 18:26:00,
2013-04-06 14:31:00,47.5,16.0,30.27,NE,44,6.0,6.0,28,0.00,,---,0.00,VWS V13.01,2013-04-06 18:31:00,
2013-04-06 14:37:00,48.5,18.5,30.26,WSW,238,8.0,16.0,30,0.00,,---,0.00,VWS V13.01,2013-04-06 18:37:00,
2013-04-06 14:42:00,48.9,18.1,30.26,North,351,0.0,16.0,29,0.00,,---,0.00,VWS V13.01,2013-04-06 18:42:00,
2013-04-06 14:47:00,49.0,16.5,30.25,East,82,0.0,16.0,27,0.00,,---,0.00,VWS V13.01,2013-04-06 18:47:00,
2013-04-06 14:53:00,48.7,16.2,30.25,ENE,78,11.0,16.0,27,0.00,,---,0.00,VWS V13.01,2013-04-06 18:53:00,
2013-04-06 14:58:00,48.1,15.7,30.25,East,94,8.0,16.0,27,0.00,,---,0.00,VWS V13.01,2013-04-06 18:58:00,
2013-04-06 15:03:00,48.7,14.5,30.25,SSW,209,7.0,9.0,25,0.00,,---,0.00,VWS V13.01,2013-04-06 19:03:00,
2013-04-06 15:09:00,48.9,15.5,30.25,East,101,2.0,19.0,26,0.00,,---,0.00,VWS V13.01,2013-04-06 19:09:00,
2013-04-06 15:14:00,49.4,16.0,30.24,West,268,0.0,19.0,26,0.00,,---,0.00,VWS V13.01,2013-04-06 19:14:00,
2013-04-06 15:20:00,50.5,16.9,30.24,SW,232,9.0,19.0,26,0.00,,---,0.00,VWS V13.01,2013-04-06 19:20:00,
2013-04-06 15:25:00,50.6,15.2,30.24,South,176,0.0,21.0,24,0.00,,---,0.00,VWS V13.01,2013-04-06 19:25:00,
2013-04-06 15:30:00,50.4,15.9,30.23,SSW,205,0.0,21.0,25,0.00,,---,0.00,VWS V13.01,2013-04-06 19:30:00,
2013-04-06 15:35:00,50.5,16.0,30.23,South,191,2.0,15.0,25,0.00,,---,0.00,VWS V13.01,2013-04-06 19:35:00,
2013-04-06 15:41:00,50.8,15.3,30.22,East,87,0.0,15.0,24,0.00,,---,0.00,VWS V13.01,2013-04-06 19:41:00,
2013-04-06 15:46:00,50.5,15.1,30.22,WSW,238,7.0,15.0,24,0.00,,---,0.00,VWS V13.01,2013-04-06 19:46:00,
2013-04-06 15:52:00,50.4,16.8,30.22,NW,309,4.0,15.0,26,0.00,,---,0.00,VWS V13.01,2013-04-06 19:52:00,
2013-04-06 15:57:00,50.6,17.0,30.21,South,175,1.0,15.0,26,0.00,,---,0.00,VWS V13.01,2013-04-06 19:57:00,
2013-04-06 16:02:00,50.7,16.2,30.20,SSE,154,7.0,7.0,25,0.00,,---,0.00,VWS V13.01,2013-04-06 20:02:00,
2013-04-06 16:08:00,50.8,15.3,30.20,West,274,8.0,12.0,24,0.00,,---,0.00,VWS V13.01,2013-04-06 20:08:00,
2013-04-06 16:13:00,50.9,17.2,30.20,West,281,0.0,12.0,26,0.00,,---,0.00,VWS V13.01,2013-04-06 20:13:00,
2013-04-06 16:19:00,51.1,16.5,30.20,SSW,209,6.0,12.0,25,0.00,,---,0.00,VWS V13.01,2013-04-06 20:19:00,
2013-04-06 16:25:00,51.4,15.8,30.20,SW,217,1.0,12.0,24,0.00,,---,0.00,VWS V13.01,2013-04-06 20:25:00,
2013-04-06 16:30:00,51.7,16.1,30.19,West,269,1.0,12.0,24,0.00,,---,0.00,VWS V13.01,2013-04-06 20:30:00,
2013-04-06 16:35:00,51.6,15.0,30.18,SE,138,0.0,10.0,23,0.00,,---,0.00,VWS V13.01,2013-04-06 20:35:00,
2013-04-06 16:41:00,51.8,16.2,30.19,West,272,6.0,10.0,24,0.00,,---,0.00,VWS V13.01,2013-04-06 20:41:00,
2013-04-06 16:46:00,51.9,15.3,30.19,South,191,4.0,13.0,23,0.00,,---,0.00,VWS V13.01,2013-04-06 20:46:00,
2013-04-06 16:52:00,52.1,17.4,30.19,WNW,286,8.0,14.0,25,0.00,,---,0.00,VWS V13.01,2013-04-06 20:52:00,
2013-04-06 16:57:00,51.9,15.3,30.19,SSW,205,9.0,14.0,23,0.00,,---,0.00,VWS V13.01,2013-04-06 20:57:00,
2013-04-06 17:02:00,51.7,14.1,30.19,South,173,2.0,12.0,22,0.00,,---,0.00,VWS V13.01,2013-04-06 21:02:00,
2013-04-06 17:07:00,51.9,16.3,30.18,WSW,253,5.0,12.0,24,0.00,,---,0.00,VWS V13.01,2013-04-06 21:07:00,
2013-04-06 17:13:00,52.3,15.6,30.18,WNW,302,7.0,12.0,23,0.00,,---,0.00,VWS V13.01,2013-04-06 21:13:00,
2013-04-06 17:18:00,52.2,17.5,30.18,SSE,164,1.0,13.0,25,0.00,,---,0.00,VWS V13.01,2013-04-06 21:18:00,
2013-04-06 17:23:00,51.9,17.2,30.19,West,263,2.0,13.0,25,0.00,,---,0.00,VWS V13.01,2013-04-06 21:23:00,
2013-04-06 17:28:00,52.0,16.4,30.18,SSW,196,6.0,13.0,24,0.00,,---,0.00,VWS V13.01,2013-04-06 21:28:00,
2013-04-06 17:34:00,52.2,15.5,30.18,WSW,238,2.0,10.0,23,0.00,,---,0.00,VWS V13.01,2013-04-06 21:34:00,
2013-04-06 17:39:00,52.4,15.7,30.18,SW,215,0.0,10.0,23,0.00,,---,0.00,VWS V13.01,2013-04-06 21:39:00,
2013-04-06 17:44:00,52.6,16.9,30.18,ESE,110,2.0,15.0,24,0.00,,---,0.00,VWS V13.01,2013-04-06 21:44:00,
2013-04-06 17:50:00,53.0,16.2,30.18,ESE,119,0.0,15.0,23,0.00,,---,0.00,VWS V13.01,2013-04-06 21:50:00,
2013-04-06 17:55:00,53.3,16.5,30.18,SSW,204,0.0,15.0,23,0.00,,---,0.00,VWS V13.01,2013-04-06 21:55:00,
2013-04-06 18:00:00,53.5,16.6,30.17,SSE,160,0.0,15.0,23,0.00,,---,0.00,VWS V13.01,2013-04-06 22:00:00,
2013-04-06 18:05:00,53.6,17.7,30.17,West,268,7.0,11.0,24,0.00,,---,0.00,VWS V13.01,2013-04-06 22:05:00,
2013-04-06 18:10:00,53.1,16.3,30.17,West,266,5.0,16.0,23,0.00,,---,0.00,VWS V13.01,2013-04-06 22:10:00,
2013-04-06 18:16:00,52.6,15.9,30.17,WSW,256,5.0,16.0,23,0.00,,---,0.00,VWS V13.01,2013-04-06 22:16:00,
2013-04-06 18:21:00,52.4,17.6,30.17,West,259,0.0,16.0,25,0.00,,---,0.00,VWS V13.01,2013-04-06 22:21:00,
2013-04-06 18:27:00,52.3,16.6,30.17,West,269,1.0,16.0,24,0.00,,---,0.00,VWS V13.01,2013-04-06 22:27:00,
2013-04-06 18:32:00,52.1,17.4,30.16,SW,230,6.0,7.0,25,0.00,,---,0.00,VWS V13.01,2013-04-06 22:32:00,
2013-04-06 18:37:00,51.9,16.3,30.16,WSW,254,1.0,7.0,24,0.00,,---,0.00,VWS V13.01,2013-04-06 22:37:00,
2013-04-06 18:43:00,51.8,18.0,30.16,WSW,257,0.0,7.0,26,0.00,,---,0.00,VWS V13.01,2013-04-06 22:43:00,
2013-04-06 18:48:00,51.5,15.9,30.15,West,263,4.0,7.0,24,0.00,,---,0.00,VWS V13.01,2013-04-06 22:48:00,
2013-04-06 18:54:00,51.6,16.0,30.15,WSW,238,0.0,9.0,24,0.00,,---,0.00,VWS V13.01,2013-04-06 22:54:00,
2013-04-06 19:00:00,51.5,16.9,30.15,WSW,240,3.0,9.0,25,0.00,,---,0.00,VWS V13.01,2013-04-06 23:00:00,
2013-04-06 19:05:00,51.3,16.7,30.15,West,272,0.0,4.0,25,0.00,,---,0.00,VWS V13.01,2013-04-06 23:05:00,
2013-04-06 19:10:00,51.2,17.5,30.15,West,273,4.0,9.0,26,0.00,,---,0.00,VWS V13.01,2013-04-06 23:10:00,
2013-04-06 19:15:00,50.9,20.6,30.15,West,273,0.0,9.0,30,0.00,,---,0.00,VWS V13.01,2013-04-06 23:15:00,
2013-04-06 19:20:00,50.5,23.9,30.16,West,273,0.0,9.0,35,0.00,,---,0.00,VWS V13.01,2013-04-06 23:20:00,
2013-04-06 19:25:00,49.4,20.8,30.16,West,273,0.0,9.0,32,0.00,,---,0.00,VWS V13.01,2013-04-06 23:25:00,
2013-04-06 19:31:00,48.2,25.0,30.16,West,273,0.0,0.0,40,0.00,,---,0.00,VWS V13.01,2013-04-06 23:31:00,
2013-04-06 19:36:00,47.0,25.1,30.16,West,273,0.0,0.0,42,0.00,,---,0.00,VWS V13.01,2013-04-06 23:36:00,
2013-04-06 19:42:00,46.9,25.0,30.15,West,273,0.0,1.0,42,0.00,,---,0.00,VWS V13.01,2013-04-06 23:42:00,
2013-04-06 19:48:00,46.7,24.3,30.15,West,273,0.0,1.0,41,0.00,,---,0.00,VWS V13.01,2013-04-06 23:48:00,
2013-04-06 19:53:00,46.3,27.2,30.15,West,273,0.0,1.0,47,0.00,,---,0.00,VWS V13.01,2013-04-06 23:53:00,
2013-04-06 19:58:00,45.7,23.9,30.14,West,273,0.0,1.0,42,0.00,,---,0.00,VWS V13.01,2013-04-06 23:58:00,
2013-04-06 20:03:00,45.2,25.1,30.14,West,273,0.0,0.0,45,0.00,,---,0.00,VWS V13.01,2013-04-07 00:03:00,
2013-04-06 20:08:00,44.9,24.9,30.14,West,273,0.0,0.0,45,0.00,,---,0.00,VWS V13.01,2013-04-07 00:08:00,
2013-04-06 20:13:00,44.7,25.2,30.14,West,273,0.0,1.0,46,0.00,,---,0.00,VWS V13.01,2013-04-07 00:13:00,
2013-04-06 20:19:00,44.9,22.6,30.14,West,273,0.0,1.0,41,0.00,,---,0.00,VWS V13.01,2013-04-07 00:19:00,
2013-04-06 20:25:00,44.7,27.2,30.14,West,273,0.0,1.0,50,0.00,,---,0.00,VWS V13.01,2013-04-07 00:25:00,
2013-04-06 20:30:00,44.2,26.3,30.13,West,273,0.0,1.0,49,0.00,,---,0.00,VWS V13.01,2013-04-07 00:30:00,
2013-04-06 20:35:00,43.5,30.1,30.13,West,273,0.0,0.0,59,0.00,,---,0.00,VWS V13.01,2013-04-07 00:35:00,
2013-04-06 20:40:00,42.5,29.2,30.12,West,273,0.0,1.0,59,0.00,,---,0.00,VWS V13.01,2013-04-07 00:40:00,
2013-04-06 20:45:00,42.2,28.9,30.12,West,273,0.0,1.0,59,0.00,,---,0.00,VWS V13.01,2013-04-07 00:45:00,
2013-04-06 20:51:00,42.0,27.5,30.12,West,273,0.0,1.0,56,0.00,,---,0.00,VWS V13.01,2013-04-07 00:51:00,
2013-04-06 20:57:00,41.5,27.8,30.11,West,273,0.0,4.0,58,0.00,,---,0.00,VWS V13.01,2013-04-07 00:57:00,
2013-04-06 21:02:00,41.2,27.6,30.11,SSW,193,0.0,2.0,58,0.00,,---,0.00,VWS V13.01,2013-04-07 01:02:00,
2013-04-06 21:08:00,41.5,25.2,30.12,South,191,0.0,4.0,52,0.00,,---,0.00,VWS V13.01,2013-04-07 01:08:00,
2013-04-06 21:13:00,41.5,25.2,30.12,South,191,0.0,4.0,52,0.00,,---,0.00,VWS V13.01,2013-04-07 01:13:00,
2013-04-06 21:19:00,41.1,26.2,30.11,South,191,0.0,4.0,55,0.00,,---,0.00,VWS V13.01,2013-04-07 01:19:00,
2013-04-06 21:24:00,39.8,28.6,30.11,South,191,0.0,4.0,64,0.00,,---,0.00,VWS V13.01,2013-04-07 01:24:00,
2013-04-06 21:29:00,39.2,27.3,30.11,South,191,0.0,4.0,62,0.00,,---,0.00,VWS V13.01,2013-04-07 01:29:00,
2013-04-06 21:35:00,38.9,27.4,30.11,South,191,0.0,0.0,63,0.00,,---,0.00,VWS V13.01,2013-04-07 01:35:00,
2013-04-06 21:40:00,38.9,26.6,30.11,South,191,0.0,0.0,61,0.00,,---,0.00,VWS V13.01,2013-04-07 01:40:00,
2013-04-06 21:45:00,39.0,25.5,30.11,South,191,0.0,0.0,58,0.00,,---,0.00,VWS V13.01,2013-04-07 01:45:00,
2013-04-06 21:50:00,39.0,25.9,30.11,SSE,161,0.0,0.0,59,0.00,,---,0.00,VWS V13.01,2013-04-07 01:50:00,
2013-04-06 21:56:00,39.2,25.3,30.11,SSE,161,0.0,2.0,57,0.00,,---,0.00,VWS V13.01,2013-04-07 01:56:00,
2013-04-06 22:02:00,39.3,25.4,30.10,SSE,160,0.0,0.0,57,0.00,,---,0.00,VWS V13.01,2013-04-07 02:02:00,
2013-04-06 22:07:00,39.3,24.5,30.10,SSE,160,0.0,1.0,55,0.00,,---,0.00,VWS V13.01,2013-04-07 02:07:00,
2013-04-06 22:12:00,39.4,25.0,30.10,SSE,161,0.0,1.0,56,0.00,,---,0.00,VWS V13.01,2013-04-07 02:12:00,
2013-04-06 22:17:00,39.9,24.2,30.10,SSE,161,0.0,1.0,53,0.00,,---,0.00,VWS V13.01,2013-04-07 02:17:00,
2013-04-06 22:23:00,40.3,26.3,30.09,SSE,161,0.0,1.0,57,0.00,,---,0.00,VWS V13.01,2013-04-07 02:23:00,
2013-04-06 22:28:00,40.2,22.1,30.09,SSE,161,0.0,1.0,48,0.00,,---,0.00,VWS V13.01,2013-04-07 02:28:00,
2013-04-06 22:33:00,41.2,24.5,30.09,East,85,0.0,0.0,51,0.00,,---,0.00,VWS V13.01,2013-04-07 02:33:00,
2013-04-06 22:38:00,41.4,23.7,30.09,East,85,0.0,0.0,49,0.00,,---,0.00,VWS V13.01,2013-04-07 02:38:00,
2013-04-06 22:43:00,41.5,21.2,30.08,ENE,72,0.0,2.0,44,0.00,,---,0.00,VWS V13.01,2013-04-07 02:43:00,
2013-04-06 22:49:00,41.7,23.5,30.08,ENE,73,0.0,2.0,48,0.00,,---,0.00,VWS V13.01,2013-04-07 02:49:00,
2013-04-06 22:54:00,41.7,25.4,30.08,ENE,72,0.0,2.0,52,0.00,,---,0.00,VWS V13.01,2013-04-07 02:54:00,
2013-04-06 22:59:00,41.3,24.1,30.08,ENE,74,0.0,2.0,50,0.00,,---,0.00,VWS V13.01,2013-04-07 02:59:00,
2013-04-06 23:04:00,41.5,22.8,30.08,NE,53,0.0,6.0,47,0.00,,---,0.00,VWS V13.01,2013-04-07 03:04:00,
2013-04-06 23:09:00,41.7,22.5,30.07,NE,54,0.0,6.0,46,0.00,,---,0.00,VWS V13.01,2013-04-07 03:09:00,
2013-04-06 23:14:00,41.1,24.4,30.07,ENE,75,0.0,6.0,51,0.00,,---,0.00,VWS V13.01,2013-04-07 03:14:00,
2013-04-06 23:20:00,40.6,22.5,30.06,ENE,75,0.0,6.0,48,0.00,,---,0.00,VWS V13.01,2013-04-07 03:20:00,
2013-04-06 23:25:00,40.4,23.7,30.06,ENE,75,0.0,6.0,51,0.00,,---,0.00,VWS V13.01,2013-04-07 03:25:00,
2013-04-06 23:30:00,40.8,20.0,30.06,NNE,26,0.0,8.0,43,0.00,,---,0.00,VWS V13.01,2013-04-07 03:30:00,
2013-04-06 23:35:00,41.3,23.6,30.06,NNE,26,0.0,0.0,49,0.00,,---,0.00,VWS V13.01,2013-04-07 03:35:00,
2013-04-06 23:40:00,41.3,23.6,30.06,NNE,26,0.0,0.0,49,0.00,,---,0.00,VWS V13.01,2013-04-07 03:40:00,
2013-04-06 23:45:00,41.2,24.9,30.06,NNE,26,0.0,2.0,52,0.00,,---,0.00,VWS V13.01,2013-04-07 03:45:00,
2013-04-06 23:50:00,40.8,22.1,30.06,NNE,26,0.0,2.0,47,0.00,,---,0.00,VWS V13.01,2013-04-07 03:50:00,
2013-04-06 23:56:00,40.8,23.1,30.05,NNE,26,0.0,2.0,49,0.00,,---,0.00,VWS V13.01,2013-04-07 03:56:00,